SCOUT X-4 DEB, 2011

Orbit data source: Space-Track

SCOUT X-4 DEB, 2011 is space debris in LEO originally from a launch on Thu, 29 Apr 1965 UTC launched from the Wallops Island (WLPIS). Debris objects in space refer to the collection of defunct objects orbiting the Earth. Examples of debris include non-operational satellites, rocket bodies, and fragments generated from explosions, collisions, or faulty payload assembly.

Loading next visibility...
Identifier
2011, 1965-032D
Orbit
LEO
Country
Flag of USUS
Related business
Manufacturer
Unknown
Mission
Spacecraft
Bus & Motor
Unknown
Mass
Unknown
Launch date (UTC)
1965-04-29 (61 years ago)
Launch vehicle
Unknown
Launch site
Wallops Island (WLPIS)
Object type
Payload
Rocket body
Debris
Shape & HBR
Unknown shape, 0.1 m
Radar Cross Section
Small (<0.1 m²)

Expand to show TLE details & history
Last TLE update: 3 days ago

TLE from 3 days ago
0 SCOUT X-4 DEB
1 02011U 65032D   26118.63771140 -.00000247  00000-0 -24895-3 0  9993
2 02011  41.2003 334.2129 0223993  38.6701 359.3454 13.40951333970677
Epoch: 2026-04-28T15:18Z
TLE epoch observation values (Epoch: 2026-04-28T15:18:18.264Z)
Latitude
23.99936°
Longitude
-81.5829°
Altitude
937.755 km
Speed
7.469 km/s
True Right ascension
00h 18m 24s
True Declination
23° 52' 30"
Sunlit
Object was in daylight at epoch
Visualization orbit readout
Latitude
Unknown
Longitude
Unknown
Altitude
Unknown
Speed
Unknown
Apparent Right ascension
Unknown
Apparent Declination
Unknown
Sunlit
N/A
Visualization observer readout
Local Sidereal Time
07:33:18
Azimuth
Unknown
Elevation
Unknown
Doppler factor
Unknown
Orbital elements
Apogee altitude
1,275.479 km
Perigee altitude
940.119 km
Semi-major axis
7,485.936 km
Eccentricity
0.0224
Inclination
41.2003°
RAAN
334.2129°
Arg. of periapsis
38.6701°
True anomaly
359.31523°
Mean anomaly
359.3454°
Eccentric anomaly
359.3304°
Mean motion
3.351 °/min
Orbital period
107.43 mins
BSTAR
-0.00024895
Loading maneuver chart data...
Computing Atmospheric mass density...
Loading historical data...
Loading historical data...
Loading historical data...
Loading historical data...
Loading historical data...
Loading historical data...
Loading historical data...
Other satellites on launch #32 in the year 1965 (1965-04-29 UTC)

Documentation

Showing up to 5 results
|